GW4852 Weather Reports


time (UTC)temp
C
wind
direction
speed
KPH
gust
KPH
rain 1hr
cm
rain 24hr
cm
rain mn
cm
humidity
%
barometer
mb
20260503215137 15 244 4.8 12.9 0.00 0.00 0.00 29 1015.0
20260503214636 15 248 6.4 11.3 0.00 0.00 0.00 30 1014.9
20260503214132 15 259 9.7 12.9 0.00 0.00 0.00 32 1014.9
20260503213626 15 254 3.2 14.5 0.00 0.00 0.00 32 1014.9
20260503213122 15 240 4.8 17.7 0.00 0.00 0.00 32 1015.1
20260503212620 15 268 6.4 16.1 0.00 0.00 0.00 33 1015.0
20260503212117 16 225 4.8 6.4 0.00 0.00 0.00 29 1014.9
20260503211614 16 211 8.0 12.9 0.00 0.00 0.00 33 1015.0
20260503211109 16 128 3.2 6.4 0.00 0.00 0.00 31 1015.0
20260503210601 16 191 4.8 6.4 0.00 0.00 0.00 31 1015.1
20260503210056 16 193 6.4 9.7 0.00 0.00 0.00 33 1014.9
20260503205553 16 56 8.0 12.9 0.00 0.00 0.00 32 1014.7
20260503205049 16 181 3.2 6.4 0.00 0.00 0.00 30 1014.9
20260503204546 15 260 4.8 6.4 0.00 0.00 0.00 32 1015.0
20260503204043 15 354 1.6 9.7 0.00 0.00 0.00 33 1015.2
20260503203535 16 229 6.4 9.7 0.00 0.00 0.00 31 1014.9
20260503203032 16 328 4.8 6.4 0.00 0.00 0.00 34 1015.2
20260503202530 16 28 3.2 14.5 0.00 0.00 0.00 30 1015.2
20260503202027 16 257 8.0 11.3 0.00 0.00 0.00 31 1015.2
20260503201520 15 214 1.6 17.7 0.00 0.00 0.00 34 1015.2
20260503201017 16 274 3.2 11.3 0.00 0.00 0.00 31 1015.3
20260503200513 16 209 3.2 12.9 0.00 0.00 0.00 33 1015.4
20260503200009 15 287 3.2 12.9 0.00 0.00 0.00 33 1015.5
20260503195506 16 293 6.4 9.7 0.00 0.00 0.00 33 1015.5
20260503195002 16 35 6.4 12.9 0.00 0.00 0.00 32 1015.5
20260503194500 16 235 9.7 11.3 0.00 0.00 0.00 29 1015.7
20260503193955 16 234 4.8 9.7 0.00 0.00 0.00 33 1015.6
20260503193451 15 268 3.2 9.7 0.00 0.00 0.00 32 1015.8
20260503192947 15 186 4.8 22.5 0.00 0.00 0.00 35 1015.9
20260503192444 15 316 4.8 17.7 0.00 0.00 0.00 38 1015.8
20260503191939 15 90 1.6 17.7 0.00 0.00 0.00 33 1016.0
20260503191437 16 68 6.4 11.3 0.00 0.00 0.00 33 1015.8
20260503190933 16 215 9.7 12.9 0.00 0.00 0.00 30 1015.9
20260503190431 15 280 4.8 16.1 0.00 0.00 0.00 33 1015.9
20260503185927 15 90 4.8 12.9 0.00 0.00 0.00 35 1016.1
20260503185424 14 194 3.2 6.4 0.00 0.00 0.00 34 1016.1
20260503184923 15 281 9.7 16.1 0.00 0.00 0.00 30 1016.2
20260503184420 14 254 6.4 12.9 0.00 0.00 0.00 32 1016.3
20260503183916 13 325 8.0 17.7 0.00 0.00 0.00 32 1016.3
20260503183413 14 321 9.7 16.1 0.00 0.00 0.00 35 1016.6
20260503182910 14 315 9.7 14.5 0.00 0.00 0.00 32 1016.5
20260503182409 13 290 9.7 12.9 0.00 0.00 0.00 32 1016.5
20260503181906 13 263 9.7 20.9 0.00 0.00 0.00 34 1016.5
20260503181402 13 261 8.0 20.9 0.00 0.00 0.00 36 1016.4
20260503180859 13 323 4.8 6.4 0.00 0.00 0.00 33 1016.5
20260503180357 13 351 12.9 14.5 0.00 0.00 0.00 37 1016.4
20260503175853 13 5 3.2 16.1 0.00 0.00 0.00 34 1016.5
20260503175352 14 260 4.8 20.9 0.00 0.00 0.00 32 1016.5
20260503174847 13 279 4.8 11.3 0.00 0.00 0.00 32 1016.8
20260503174345 14 259 6.4 12.9 0.00 0.00 0.00 34 1016.7
20260503173845 14 214 4.8 16.1 0.00 0.00 0.00 35 1016.6
20260503173342 13 269 4.8 17.7 0.00 0.00 0.00 36 1016.7
20260503172838 13 225 6.4 14.5 0.00 0.00 0.00 35 1017.1
20260503172336 12 224 6.4 14.5 0.00 0.00 0.00 34 1017.1
20260503171832 13 238 4.8 14.5 0.00 0.00 0.00 35 1016.9
20260503171329 13 252 6.4 11.3 0.00 0.00 0.00 36 1016.9
20260503170826 13 246 4.8 11.3 0.00 0.00 0.00 35 1017.2
20260503170323 12 351 1.6 11.3 0.00 0.00 0.00 42 1017.2
20260503150715 11 261 4.8 11.3 0.00 0.00 0.00 44 1018.3
20260503150211 10 222 8.0 14.5 0.00 0.00 0.00 47 1018.3
20260503140136 8 296 6.4 12.9 0.00 0.00 0.00 52 1018.3
20260503131105 7 234 1.6 4.8 0.00 0.00 0.00 58 1018.6
20260503130603 7 213 4.8 6.4 0.00 0.00 0.00 58 1018.4
20260503110453 1 118 0.0 0.0 0.00 0.00 0.00 83 1017.5
20260503090338 2 230 0.0 0.0 0.00 0.00 0.00 75 1016.2
20260503081306 3 241 3.2 3.2 0.00 0.00 0.00 73 1016.0
20260503080802 3 261 0.0 1.6 0.00 0.00 0.00 74 1016.1
20260503080259 3 267 1.6 3.2 0.00 0.00 0.00 73 1016.1
20260503072736 4 212 1.6 4.8 0.00 0.00 0.00 71 1016.0
20260503072232 4 230 1.6 4.8 0.00 0.00 0.00 72 1015.9
20260503071729 4 236 3.2 6.4 0.00 0.00 0.00 71 1015.7
20260503071226 4 279 4.8 4.8 0.00 0.00 0.00 72 1015.8
20260503070722 4 195 1.6 3.2 0.00 0.00 0.00 72 1015.8
20260503070220 3 229 1.6 3.2 0.00 0.00 0.00 76 1015.7
20260503060145 3 241 0.0 3.2 0.00 0.00 0.00 76 1015.6
20260503054632 3 298 0.0 0.0 0.00 0.00 0.00 77 1015.7
20260503054129 3 298 1.6 3.2 0.00 0.00 0.00 76 1015.6
20260503053627 3 285 0.0 0.0 0.00 0.00 0.00 76 1015.5
20260503053125 3 285 0.0 0.0 0.00 0.00 0.00 74 1015.8
20260503052621 3 283 0.0 1.6 0.00 0.00 0.00 75 1015.7
20260503052118 3 286 0.0 3.2 0.00 0.00 0.00 76 1015.8
20260503051613 3 271 0.0 1.6 0.00 0.00 0.00 75 1015.7
20260503051111 3 227 1.6 1.6 0.00 0.00 0.00 75 1015.8
20260503050607 3 288 0.0 3.2 0.00 0.00 0.00 74 1015.7
20260503050105 3 244 0.0 3.2 0.00 0.00 0.00 74 1015.5
20260503045601 3 210 0.0 0.0 0.00 0.00 0.00 74 1015.7
20260503045059 4 171 0.0 0.0 0.00 0.00 0.00 73 1015.8
20260503044555 3 257 0.0 3.2 0.00 0.00 0.00 73 1015.8
20260503044053 4 242 0.0 1.6 0.00 0.00 0.00 72 1015.9
20260503043549 4 235 0.0 1.6 0.00 0.00 0.00 72 1015.8
20260503043046 4 186 1.6 3.2 0.00 0.00 0.00 71 1015.8
20260503042543 4 231 0.0 0.0 0.00 0.00 0.00 71 1015.8
20260503042038 4 234 0.0 0.0 0.00 0.00 0.00 71 1016.0
20260503041536 4 240 1.6 4.8 0.00 0.00 0.00 69 1015.9
20260503041033 4 238 3.2 6.4 0.00 0.00 0.00 71 1015.9
20260503040530 4 252 0.0 1.6 0.00 0.00 0.00 71 1016.0
20260503040028 4 257 0.0 3.2 0.00 0.00 0.00 72 1015.8
20260503035524 5 230 0.0 0.0 0.00 0.00 0.00 70 1015.9
20260503035022 5 234 0.0 3.2 0.00 0.00 0.00 69 1015.7
20260503034519 5 262 1.6 1.6 0.00 0.00 0.00 69 1015.9
20260503034016 5 262 0.0 1.6 0.00 0.00 0.00 68 1015.8
20260503033513 5 250 1.6 3.2 0.00 0.00 0.00 68 1015.8
20260503033011 5 252 1.6 3.2 0.00 0.00 0.00 68 1015.8
20260503032509 5 253 0.0 0.0 0.00 0.00 0.00 67 1015.8
20260503032007 5 251 0.0 3.2 0.00 0.00 0.00 67 1015.9
20260503031505 5 262 0.0 1.6 0.00 0.00 0.00 65 1015.7
20260503031001 5 294 3.2 3.2 0.00 0.00 0.00 65 1016.0
20260503030457 6 274 3.2 4.8 0.00 0.00 0.00 63 1015.9
20260503025954 6 281 0.0 1.6 0.00 0.00 0.00 63 1015.9
20260503025451 6 301 4.8 4.8 0.00 0.00 0.00 63 1015.9
20260503024949 6 279 6.4 11.3 0.00 0.00 0.00 63 1016.0
20260503024445 6 208 3.2 4.8 0.00 0.00 0.00 62 1015.9
20260503023942 6 303 1.6 3.2 0.00 0.00 0.00 61 1016.2
20260503023439 6 268 3.2 14.5 0.00 0.00 0.00 60 1016.2
20260503022936 6 290 4.8 11.3 0.00 0.00 0.00 59 1016.0
20260503022431 6 283 11.3 16.1 0.00 0.00 0.00 59 1016.1
20260503021927 7 273 3.2 6.4 0.00 0.00 0.00 60 1016.0
20260503021423 7 251 11.3 22.5 0.00 0.00 0.00 60 1015.9
20260503020921 6 287 1.6 6.4 0.00 0.00 0.00 61 1015.8
20260503020419 7 304 8.0 9.7 0.00 0.00 0.00 59 1015.9
20260503015915 7 315 3.2 11.3 0.00 0.00 0.00 59 1016.0
20260503015412 7 292 3.2 9.7 0.00 0.00 0.00 58 1015.8
20260503014908 7 277 3.2 6.4 0.00 0.00 0.00 56 1015.7
20260503014405 7 274 3.2 3.2 0.00 0.00 0.00 57 1015.7
20260503013903 7 330 11.3 14.5 0.00 0.00 0.00 56 1015.9
20260503013400 7 255 3.2 14.5 0.00 0.00 0.00 56 1015.6
20260503012857 7 280 4.8 11.3 0.00 0.00 0.00 57 1015.5
20260503012355 7 271 6.4 12.9 0.00 0.00 0.00 56 1015.5
20260503011851 7 284 9.7 14.5 0.00 0.00 0.00 55 1015.6
20260503011348 7 296 6.4 12.9 0.00 0.00 0.00 56 1015.2
20260503010845 8 294 3.2 9.7 0.00 0.00 0.00 57 1015.1
20260503010342 8 270 1.6 3.2 0.00 0.00 0.00 55 1015.1
20260503005838 8 320 4.8 6.4 0.00 0.00 0.00 54 1015.2
20260503005336 8 266 1.6 4.8 0.00 0.00 0.00 56 1014.9
20260503004832 8 271 1.6 9.7 0.00 0.00 0.00 54 1014.7
20260503004330 8 277 6.4 6.4 0.00 0.00 0.00 54 1014.7
20260503003827 8 302 3.2 4.8 0.00 0.00 0.00 54 1014.6
20260503003324 8 307 6.4 11.3 0.00 0.00 0.00 53 1014.4
20260503002821 8 287 3.2 3.2 0.00 0.00 0.00 55 1014.7
20260503002318 8 291 4.8 6.4 0.00 0.00 0.00 53 1014.4
20260503001814 8 307 9.7 12.9 0.00 0.00 0.00 53 1014.5
20260503001311 8 290 3.2 4.8 0.00 0.00 0.00 52 1014.5
20260503000808 8 284 1.6 4.8 0.00 0.00 0.00 53 1014.2
20260503000306 9 322 4.8 4.8 0.00 0.00 0.00 52 1014.2
20260502235802 9 280 6.4 12.9 0.00 0.00 0.00 52 1014.2
20260502235300 9 302 6.4 11.3 0.00 0.00 0.00 52 1013.9
20260502234756 9 303 6.4 6.4 0.00 0.00 0.00 51 1013.8
20260502234253 9 330 8.0 11.3 0.00 0.00 0.00 51 1013.9
20260502233749 9 352 6.4 9.7 0.00 0.00 0.00 50 1013.9
20260502233246 9 256 4.8 9.7 0.00 0.00 0.00 50 1013.9
20260502232742 9 289 8.0 12.9 0.00 0.00 0.00 52 1013.7
20260502232239 9 306 6.4 14.5 0.00 0.00 0.00 51 1013.7
20260502231736 9 324 6.4 11.3 0.00 0.00 0.00 51 1013.9
20260502231234 9 289 3.2 9.7 0.00 0.00 0.00 51 1013.7
20260502230732 10 296 6.4 9.7 0.00 0.00 0.00 52 1013.7
20260502230230 10 325 6.4 12.9 0.00 0.00 0.00 52 1013.6
20260502225726 10 325 8.0 12.9 0.00 0.00 0.00 50 1013.7
20260502225223 10 281 6.4 12.9 0.00 0.00 0.00 51 1013.6
20260502224719 10 297 6.4 11.3 0.00 0.00 0.00 48 1013.6
20260502224216 10 274 4.8 6.4 0.00 0.00 0.00 50 1013.6
20260502223714 10 273 8.0 11.3 0.00 0.00 0.00 48 1013.5
20260502223212 10 306 3.2 4.8 0.00 0.00 0.00 47 1013.4
20260502222709 10 295 6.4 9.7 0.00 0.00 0.00 48 1013.6
20260502222206 11 283 11.3 16.1 0.00 0.00 0.00 46 1013.3
20260502221702 11 249 3.2 4.8 0.00 0.00 0.00 45 1013.2
20260502221159 11 272 3.2 6.4 0.00 0.00 0.00 46 1013.2
20260502220655 11 306 1.6 3.2 0.00 0.00 0.00 47 1013.1
20260502220151 11 280 0.0 4.8 0.00 0.00 0.00 44 1013.3
20260502215648 11 249 1.6 6.4 0.00 0.00 0.00 47 1013.3